AFL1905 RJTT-UHWW

Flight info

Callsign AFL1905
Flight time 1h 47m
Altitude 36000
Route GUSRO GYODA Y88 AKAGI V15 GTC R211 KADBO B451 IGROD/K0848F360 B451 IDBUR DCT KESAN KESAN2N
Aircraft A320/M-SDE3FGHIRWY/LB1

Departure

Time 2026-05-04 18:39
Airport Tokyo Haneda International Airport (RJTT)

Arrival

Time 2026-05-04 20:26
Airport Vladivostok International Airport (UHWW)
Time Latitude Longitude Altitude Speed Heading
2026-05-04 18:16 35.55261 139.78864 28 ft 0 kts 240°
2026-05-04 18:24 35.55262 139.78864 28 ft 0 kts 240°
2026-05-04 18:25 35.55262 139.78865 28 ft 0 kts 240°
2026-05-04 18:26 35.55265 139.78872 28 ft 3 kts 240°
2026-05-04 18:26 35.55274 139.78891 27 ft 3 kts 240°
2026-05-04 18:26 35.55283 139.78909 27 ft 2 kts 230°
2026-05-04 18:26 35.55294 139.78925 27 ft 3 kts 221°
2026-05-04 18:27 35.55308 139.78937 27 ft 2 kts 208°
2026-05-04 18:27 35.55324 139.78944 27 ft 2 kts 188°
2026-05-04 18:27 35.55338 139.78945 27 ft 0 kts 164°
2026-05-04 18:29 35.55336 139.78946 27 ft 1 kts 163°
2026-05-04 18:29 35.55319 139.78954 27 ft 4 kts 150°
2026-05-04 18:29 35.55291 139.78973 28 ft 6 kts 150°
2026-05-04 18:30 35.55182 139.79047 27 ft 11 kts 149°
2026-05-04 18:30 35.55116 139.79094 28 ft 11 kts 150°
2026-05-04 18:30 35.55052 139.79144 28 ft 11 kts 139°
2026-05-04 18:31 35.55041 139.79225 27 ft 10 kts 66°
2026-05-04 18:31 35.55067 139.79302 30 ft 10 kts 83°
2026-05-04 18:31 35.55043 139.79372 29 ft 8 kts 143°
2026-05-04 18:31 35.54994 139.79406 27 ft 8 kts 150°
2026-05-04 18:32 35.54923 139.79456 27 ft 18 kts 150°
2026-05-04 18:32 35.54785 139.79553 30 ft 28 kts 150°
2026-05-04 18:32 35.54587 139.79691 24 ft 37 kts 150°
2026-05-04 18:32 35.54346 139.79860 20 ft 42 kts 150°
2026-05-04 18:33 35.54099 139.80038 21 ft 38 kts 149°
2026-05-04 18:33 35.53921 139.80169 21 ft 24 kts 148°
2026-05-04 18:33 35.53790 139.80140 22 ft 19 kts 236°
2026-05-04 18:33 35.53702 139.80044 20 ft 16 kts 159°
2026-05-04 18:34 35.53580 139.80121 26 ft 26 kts 150°
2026-05-04 18:34 35.53394 139.80250 34 ft 34 kts 146°
2026-05-04 18:34 35.53200 139.80380 42 ft 29 kts 153°
2026-05-04 18:34 35.53051 139.80488 47 ft 18 kts 150°
2026-05-04 18:35 35.52944 139.80504 47 ft 15 kts 217°
2026-05-04 18:35 35.52870 139.80427 48 ft 13 kts 223°
2026-05-04 18:35 35.52807 139.80355 49 ft 14 kts 223°
2026-05-04 18:35 35.52724 139.80259 50 ft 19 kts 223°
2026-05-04 18:36 35.52624 139.80151 51 ft 17 kts 214°
2026-05-04 18:36 35.52534 139.80195 51 ft 14 kts 133°
2026-05-04 18:36 35.52477 139.80271 50 ft 9 kts 133°
2026-05-04 18:36 35.52468 139.80282 48 ft 0 kts 133°
2026-05-04 18:37 35.52467 139.80283 49 ft 2 kts 133°
2026-05-04 18:37 35.52445 139.80309 52 ft 5 kts 138°
2026-05-04 18:37 35.52423 139.80345 51 ft 5 kts 104°
2026-05-04 18:37 35.52435 139.80377 51 ft 3 kts 55°
2026-05-04 18:38 35.52449 139.80396 50 ft 0 kts 44°
2026-05-04 18:38 35.52575 139.80535 50 ft 63 kts 40°
2026-05-04 18:38 35.53062 139.81074 49 ft 123 kts 42°
2026-05-04 18:38 35.53802 139.81881 278 ft 152 kts 36°
2026-05-04 18:39 35.54573 139.82817 849 ft 161 kts 37°
2026-05-04 18:39 35.55364 139.83832 1491 ft 168 kts 36°
2026-05-04 18:39 35.56115 139.85011 1963 ft 192 kts 53°
2026-05-04 18:39 35.56280 139.86818 2191 ft 235 kts 88°
2026-05-04 18:40 35.55935 139.88859 2543 ft 260 kts 100°
2026-05-04 18:40 35.55387 139.91011 3272 ft 265 kts 105°
2026-05-04 18:40 35.54719 139.93124 4066 ft 268 kts 120°
2026-05-04 18:40 35.53364 139.94750 4568 ft 281 kts 157°
2026-05-04 18:41 35.51481 139.95180 5314 ft 275 kts 189°
2026-05-04 18:41 35.49601 139.94848 6219 ft 271 kts 198°
2026-05-04 18:41 35.47944 139.93861 7040 ft 264 kts 224°
2026-05-04 18:41 35.46800 139.92138 7834 ft 261 kts 245°
2026-05-04 18:42 35.46273 139.90017 8630 ft 262 kts 265°
2026-05-04 18:42 35.46419 139.87785 9417 ft 266 kts 279°
2026-05-04 18:42 35.46760 139.85540 10186 ft 269 kts 279°
2026-05-04 18:42 35.47136 139.83277 10838 ft 276 kts 283°
2026-05-04 18:43 35.47921 139.81014 11017 ft 303 kts 297°
2026-05-04 18:43 35.49224 139.78836 11160 ft 330 kts 308°
2026-05-04 18:43 35.50880 139.76806 11382 ft 348 kts 311°
2026-05-04 18:43 35.52602 139.74681 11996 ft 352 kts 310°
2026-05-04 18:44 35.54312 139.72523 12716 ft 353 kts 308°
2026-05-04 18:44 35.54890 139.71789 12967 ft 353 kts 308°
2026-05-04 18:44 35.57288 139.67824 14118 ft 345 kts 292°
2026-05-04 18:44 35.58366 139.65179 14714 ft 347 kts 292°
2026-05-04 18:45 35.59463 139.62522 15280 ft 350 kts 291°
2026-05-04 18:45 35.60570 139.59852 15831 ft 352 kts 291°
2026-05-04 18:45 35.61691 139.57163 16373 ft 354 kts 291°
2026-05-04 18:45 35.62821 139.54456 16905 ft 357 kts 291°
2026-05-04 18:46 35.63956 139.51734 17439 ft 360 kts 291°
2026-05-04 18:46 35.65018 139.48953 17996 ft 358 kts 284°
2026-05-04 18:46 35.65635 139.46010 18487 ft 354 kts 274°
2026-05-04 18:46 35.65784 139.42990 18954 ft 353 kts 268°
2026-05-04 18:47 35.65825 139.39970 19438 ft 353 kts 268°
2026-05-04 18:47 35.65871 139.36949 19926 ft 354 kts 268°
2026-05-04 18:47 35.65922 139.33954 20394 ft 355 kts 268°
2026-05-04 18:47 35.65975 139.30909 20868 ft 356 kts 268°
2026-05-04 18:48 35.66031 139.27860 21331 ft 357 kts 268°
2026-05-04 18:48 35.66128 139.24799 21778 ft 360 kts 273°
2026-05-04 18:48 35.66833 139.21800 22187 ft 374 kts 289°
2026-05-04 18:48 35.68388 139.19153 22594 ft 396 kts 307°
2026-05-04 18:49 35.70774 139.17241 22980 ft 427 kts 327°
2026-05-04 18:49 35.73790 139.16476 23353 ft 462 kts 349°
2026-05-04 18:49 35.77063 139.16884 23709 ft 482 kts
2026-05-04 18:49 35.80370 139.17820 23999 ft 493 kts
2026-05-04 18:50 35.83674 139.19079 24270 ft 501 kts
2026-05-04 18:50 35.86976 139.20490 24535 ft 506 kts 11°
2026-05-04 18:50 35.89189 139.21445 24711 ft 507 kts 10°
2026-05-04 18:50 35.92544 139.22832 24966 ft 509 kts
2026-05-04 18:51 35.95933 139.24120 25212 ft 511 kts
2026-05-04 18:51 35.99367 139.25327 25445 ft 513 kts
2026-05-04 18:51 36.02824 139.26482 25685 ft 516 kts
2026-05-04 18:51 36.06301 139.27622 25940 ft 519 kts
2026-05-04 18:52 36.09793 139.28846 26157 ft 528 kts 10°
2026-05-04 18:52 36.13204 139.30683 26382 ft 544 kts 21°
2026-05-04 18:52 36.16420 139.33259 26585 ft 557 kts 32°
2026-05-04 18:52 36.19321 139.36507 26796 ft 568 kts 43°
2026-05-04 18:53 36.21822 139.40324 26999 ft 574 kts 52°
2026-05-04 18:53 36.24174 139.44338 27198 ft 577 kts 52°
2026-05-04 18:53 36.26535 139.48364 27456 ft 579 kts 52°
2026-05-04 18:53 36.28915 139.52393 27766 ft 579 kts 49°
2026-05-04 18:54 36.31611 139.56072 28042 ft 575 kts 38°
2026-05-04 18:54 36.34699 139.59167 28322 ft 568 kts 27°
2026-05-04 18:54 36.38079 139.61625 28621 ft 558 kts 17°
2026-05-04 18:54 36.41644 139.63379 28926 ft 546 kts
2026-05-04 18:55 36.45286 139.64435 29247 ft 531 kts 356°
2026-05-04 18:55 36.52441 139.64627 29867 ft 499 kts 338°
2026-05-04 18:55 36.55770 139.63792 30201 ft 480 kts 329°
2026-05-04 18:56 36.58975 139.62627 30502 ft 478 kts 328°
2026-05-04 18:56 36.62170 139.61466 30840 ft 477 kts 329°
2026-05-04 18:56 36.65349 139.60309 31184 ft 476 kts 328°
2026-05-04 18:56 36.68525 139.59147 31507 ft 475 kts 328°
2026-05-04 18:57 36.71694 139.57982 31821 ft 474 kts 328°
2026-05-04 18:57 36.74852 139.56815 32176 ft 473 kts 328°
2026-05-04 18:57 36.78004 139.55652 32542 ft 471 kts 328°
2026-05-04 18:57 36.81145 139.54493 32898 ft 470 kts 328°
2026-05-04 18:58 36.84273 139.53339 33206 ft 468 kts 328°
2026-05-04 18:58 36.87400 139.52185 33513 ft 468 kts 328°
2026-05-04 18:58 36.90515 139.51034 33825 ft 467 kts 328°
2026-05-04 18:58 36.93624 139.49883 34143 ft 465 kts 328°
2026-05-04 18:59 36.96723 139.48732 34401 ft 464 kts 328°
2026-05-04 18:59 36.99818 139.47583 34672 ft 463 kts 328°
2026-05-04 18:59 37.02905 139.46437 34960 ft 462 kts 328°
2026-05-04 18:59 37.05986 139.45294 35197 ft 462 kts 328°
2026-05-04 19:00 37.09063 139.44149 35420 ft 461 kts 328°
2026-05-04 19:00 37.12136 139.43004 35668 ft 460 kts 328°
2026-05-04 19:00 37.15203 139.41860 35898 ft 459 kts 328°
2026-05-04 19:00 37.18270 139.40715 36080 ft 460 kts 328°
2026-05-04 19:01 37.24382 139.38428 36129 ft 462 kts 329°
2026-05-04 19:01 37.30539 139.36119 36128 ft 462 kts 329°
2026-05-04 19:02 37.36707 139.33814 36124 ft 462 kts 329°
2026-05-04 19:02 37.42877 139.31516 36127 ft 462 kts 329°
2026-05-04 19:03 37.49038 139.29211 36140 ft 462 kts 329°
2026-05-04 19:03 37.55198 139.26888 36153 ft 462 kts 329°
2026-05-04 19:04 37.61355 139.24561 36152 ft 462 kts 329°
2026-05-04 19:04 37.67509 139.22237 36131 ft 462 kts 329°
2026-05-04 19:05 37.73629 139.19929 36120 ft 462 kts 330°
2026-05-04 19:05 37.79785 139.17600 36122 ft 462 kts 330°
2026-05-04 19:06 37.85940 139.15256 36121 ft 462 kts 330°
2026-05-04 19:06 37.92097 139.12911 36124 ft 461 kts 329°
2026-05-04 19:07 37.95032 139.11460 36125 ft 444 kts 320°
2026-05-04 19:07 37.97637 139.09502 36126 ft 428 kts 311°
2026-05-04 19:07 38.01634 139.05342 36121 ft 420 kts 308°
2026-05-04 19:08 38.06112 139.00568 36128 ft 420 kts 308°
2026-05-04 19:08 38.10596 138.95793 36127 ft 421 kts 308°
2026-05-04 19:09 38.15065 138.91064 36126 ft 421 kts 309°
2026-05-04 19:09 38.19597 138.86338 36129 ft 421 kts 309°
2026-05-04 19:10 38.24132 138.81618 36129 ft 421 kts 309°
2026-05-04 19:10 38.28648 138.76881 36133 ft 420 kts 309°
2026-05-04 19:11 38.33152 138.72131 36129 ft 420 kts 309°
2026-05-04 19:11 38.37652 138.67373 36127 ft 420 kts 309°
2026-05-04 19:12 38.44372 138.60268 36119 ft 420 kts 310°
2026-05-04 19:13 38.48865 138.55498 36114 ft 420 kts 310°
2026-05-04 19:13 38.53350 138.50715 36103 ft 420 kts 310°
2026-05-04 19:14 38.57833 138.45921 36101 ft 420 kts 310°
2026-05-04 19:14 38.62322 138.41122 36095 ft 421 kts 310°
2026-05-04 19:15 38.66814 138.36316 36093 ft 421 kts 310°
2026-05-04 19:15 38.71302 138.31499 36090 ft 421 kts 310°
2026-05-04 19:16 38.75752 138.26704 36081 ft 421 kts 311°
2026-05-04 19:16 38.80240 138.21873 36081 ft 421 kts 311°
2026-05-04 19:17 38.84712 138.17039 36085 ft 420 kts 311°
2026-05-04 19:17 38.89182 138.12193 36088 ft 420 kts 311°
2026-05-04 19:18 38.93647 138.07358 36088 ft 420 kts 311°
2026-05-04 19:18 38.98114 138.02511 36084 ft 420 kts 311°
2026-05-04 19:19 39.02374 137.97884 36081 ft 420 kts 311°
2026-05-04 19:19 39.06841 137.93035 36079 ft 420 kts 312°
2026-05-04 19:20 39.11270 137.88211 36077 ft 420 kts 312°
2026-05-04 19:20 39.15722 137.83335 36077 ft 420 kts 312°
2026-05-04 19:21 39.20169 137.78447 36072 ft 420 kts 312°
2026-05-04 19:21 39.25095 137.74221 36059 ft 438 kts 329°
2026-05-04 19:22 39.30972 137.71778 36057 ft 445 kts 335°
2026-05-04 19:22 39.36903 137.69443 36050 ft 446 kts 335°
2026-05-04 19:23 39.42830 137.67097 36052 ft 446 kts 335°
2026-05-04 19:23 39.48763 137.64747 36054 ft 446 kts 335°
2026-05-04 19:24 39.54696 137.62399 36061 ft 446 kts 335°
2026-05-04 19:24 39.60629 137.60050 36060 ft 446 kts 335°
2026-05-04 19:25 39.65398 137.58152 36068 ft 445 kts 335°
2026-05-04 19:25 39.71316 137.55789 36063 ft 445 kts 336°
2026-05-04 19:26 39.77235 137.53424 36066 ft 444 kts 336°
2026-05-04 19:26 39.83136 137.51062 36063 ft 443 kts 336°
2026-05-04 19:27 39.89022 137.48705 36059 ft 442 kts 336°
2026-05-04 19:27 39.94856 137.46357 36055 ft 441 kts 336°
2026-05-04 19:28 40.00722 137.43996 36052 ft 441 kts 336°
2026-05-04 19:28 40.06598 137.41681 36051 ft 441 kts 337°
2026-05-04 19:29 40.12213 137.39507 36052 ft 440 kts 337°
2026-05-04 19:29 40.18081 137.37228 36044 ft 439 kts 337°
2026-05-04 19:30 40.23938 137.34937 36046 ft 439 kts 337°
2026-05-04 19:30 40.29780 137.32638 36044 ft 438 kts 337°
2026-05-04 19:31 40.35578 137.30358 36039 ft 437 kts 337°
2026-05-04 19:31 40.41439 137.28050 36037 ft 436 kts 337°
2026-05-04 19:32 40.47220 137.25768 36038 ft 436 kts 337°
2026-05-04 19:32 40.53028 137.23470 36029 ft 435 kts 337°
2026-05-04 19:33 40.58824 137.21173 36019 ft 435 kts 337°
2026-05-04 19:33 40.64620 137.18868 36022 ft 435 kts 337°
2026-05-04 19:34 40.70374 137.16581 36022 ft 434 kts 337°
2026-05-04 19:34 40.76161 137.14274 36021 ft 434 kts 337°
2026-05-04 19:35 40.81943 137.11972 36015 ft 434 kts 337°
2026-05-04 19:35 40.87720 137.09668 36016 ft 433 kts 337°
2026-05-04 19:36 40.93489 137.07358 36012 ft 433 kts 337°
2026-05-04 19:36 40.99252 137.05037 36004 ft 433 kts 337°
2026-05-04 19:37 41.05014 137.02711 36003 ft 433 kts 338°
2026-05-04 19:37 41.10781 137.00386 36000 ft 433 kts 338°
2026-05-04 19:38 41.16540 136.98060 35999 ft 433 kts 338°
2026-05-04 19:38 41.22299 136.95730 35997 ft 433 kts 338°
2026-05-04 19:39 41.28057 136.93400 35995 ft 433 kts 338°
2026-05-04 19:39 41.33815 136.91063 35990 ft 433 kts 338°
2026-05-04 19:40 41.39577 136.88725 35996 ft 433 kts 338°
2026-05-04 19:40 41.45346 136.86376 35991 ft 433 kts 338°
2026-05-04 19:41 41.51068 136.84040 35992 ft 433 kts 338°
2026-05-04 19:41 41.56827 136.81681 35985 ft 434 kts 338°
2026-05-04 19:42 41.62595 136.79070 35961 ft 437 kts 329°
2026-05-04 19:42 41.66732 136.75335 35954 ft 430 kts 314°
2026-05-04 19:43 41.70666 136.69359 35957 ft 428 kts 308°
2026-05-04 19:43 41.74511 136.63283 35952 ft 427 kts 308°
2026-05-04 19:44 41.78354 136.57208 35955 ft 427 kts 308°
2026-05-04 19:44 41.82194 136.51114 35954 ft 428 kts 308°
2026-05-04 19:45 41.86021 136.45012 35955 ft 428 kts 308°
2026-05-04 19:45 41.89852 136.38906 35958 ft 428 kts 308°
2026-05-04 19:46 41.93673 136.32787 35958 ft 427 kts 308°
2026-05-04 19:46 41.97486 136.26668 35955 ft 427 kts 308°
2026-05-04 19:47 42.01290 136.20554 35951 ft 426 kts 308°
2026-05-04 19:47 42.05094 136.14433 35945 ft 426 kts 308°
2026-05-04 19:48 42.08896 136.08315 35948 ft 426 kts 308°
2026-05-04 19:48 42.12693 136.02184 35949 ft 426 kts 308°
2026-05-04 19:49 42.16487 135.96039 35949 ft 426 kts 308°
2026-05-04 19:49 42.20273 135.89889 35943 ft 426 kts 308°
2026-05-04 19:50 42.24062 135.83727 35946 ft 426 kts 308°
2026-05-04 19:50 42.27820 135.77604 35942 ft 426 kts 308°
2026-05-04 19:51 42.31598 135.71442 35941 ft 426 kts 308°
2026-05-04 19:51 42.35366 135.65267 35940 ft 426 kts 308°
2026-05-04 19:52 42.39132 135.59086 35936 ft 425 kts 308°
2026-05-04 19:52 42.42900 135.52905 35930 ft 425 kts 308°
2026-05-04 19:53 42.46651 135.46726 35927 ft 425 kts 308°
2026-05-04 19:53 42.50375 135.40577 35926 ft 424 kts 308°
2026-05-04 19:54 42.54110 135.34385 35924 ft 424 kts 308°
2026-05-04 19:54 42.57834 135.28175 35921 ft 424 kts 308°
2026-05-04 19:55 42.61558 135.21958 35919 ft 424 kts 308°
2026-05-04 19:55 42.65273 135.15741 35918 ft 424 kts 308°
2026-05-04 19:56 42.68991 135.09518 35920 ft 424 kts 308°
2026-05-04 19:56 42.72729 135.03296 35918 ft 424 kts 308°
2026-05-04 19:57 42.76441 134.97124 35918 ft 424 kts 308°
2026-05-04 19:57 42.80164 134.90899 35917 ft 423 kts 308°
2026-05-04 19:58 42.83867 134.84682 35919 ft 423 kts 308°
2026-05-04 19:58 42.87553 134.78488 35840 ft 415 kts 308°
2026-05-04 19:58 42.89361 134.75450 35577 ft 411 kts 309°
2026-05-04 19:59 42.91154 134.72434 35166 ft 407 kts 309°
2026-05-04 19:59 42.92931 134.69438 34749 ft 405 kts 309°
2026-05-04 19:59 42.94697 134.66451 34344 ft 403 kts 309°
2026-05-04 19:59 42.96346 134.63365 33945 ft 402 kts 303°
2026-05-04 20:00 42.97651 134.59992 33475 ft 402 kts 296°
2026-05-04 20:00 42.98595 134.56394 33012 ft 404 kts 289°
2026-05-04 20:00 42.99173 134.52624 32494 ft 407 kts 281°
2026-05-04 20:00 42.99505 134.48843 32088 ft 407 kts 282°
2026-05-04 20:01 42.99838 134.44996 31640 ft 407 kts 282°
2026-05-04 20:01 43.00172 134.41168 31198 ft 407 kts 282°
2026-05-04 20:01 43.00510 134.37332 30769 ft 406 kts 282°
2026-05-04 20:01 43.00848 134.33501 30341 ft 406 kts 282°
2026-05-04 20:02 43.01183 134.29670 29915 ft 406 kts 282°
2026-05-04 20:02 43.01517 134.25839 29417 ft 407 kts 282°
2026-05-04 20:02 43.01852 134.21992 28926 ft 408 kts 282°
2026-05-04 20:02 43.02185 134.18136 28449 ft 410 kts 282°
2026-05-04 20:03 43.02515 134.14259 27977 ft 412 kts 282°
2026-05-04 20:03 43.02843 134.10363 27512 ft 414 kts 282°
2026-05-04 20:03 43.03172 134.06453 27051 ft 415 kts 281°
2026-05-04 20:03 43.03504 134.02519 26607 ft 418 kts 281°
2026-05-04 20:04 43.03837 133.98562 26162 ft 419 kts 281°
2026-05-04 20:04 43.04171 133.94595 25727 ft 422 kts 281°
2026-05-04 20:04 43.04504 133.90609 25295 ft 424 kts 281°
2026-05-04 20:04 43.04832 133.86643 24880 ft 426 kts 281°
2026-05-04 20:05 43.05162 133.82611 24462 ft 428 kts 281°
2026-05-04 20:05 43.05490 133.78561 24050 ft 428 kts 281°
2026-05-04 20:05 43.05815 133.74523 23642 ft 427 kts 281°
2026-05-04 20:05 43.06141 133.70498 23197 ft 425 kts 281°
2026-05-04 20:06 43.06468 133.66480 22723 ft 423 kts 281°
2026-05-04 20:06 43.06789 133.62490 22251 ft 421 kts 280°
2026-05-04 20:06 43.07104 133.58525 21787 ft 419 kts 280°
2026-05-04 20:06 43.07417 133.54586 21338 ft 416 kts 280°
2026-05-04 20:07 43.07731 133.50656 20893 ft 414 kts 280°
2026-05-04 20:07 43.08044 133.46751 20450 ft 412 kts 280°
2026-05-04 20:07 43.08352 133.42861 20024 ft 410 kts 280°
2026-05-04 20:07 43.08655 133.39000 19598 ft 408 kts 280°
2026-05-04 20:08 43.08957 133.35150 19182 ft 406 kts 280°
2026-05-04 20:08 43.09255 133.31316 18763 ft 404 kts 279°
2026-05-04 20:08 43.09547 133.27505 18361 ft 402 kts 279°
2026-05-04 20:08 43.09838 133.23698 17920 ft 401 kts 279°
2026-05-04 20:09 43.10130 133.19913 17456 ft 399 kts 279°
2026-05-04 20:09 43.10415 133.16209 17010 ft 396 kts 279°
2026-05-04 20:09 43.10699 133.12468 16562 ft 393 kts 279°
2026-05-04 20:09 43.10978 133.08766 16118 ft 390 kts 279°
2026-05-04 20:10 43.11256 133.05079 15679 ft 387 kts 279°
2026-05-04 20:10 43.11530 133.01422 15252 ft 386 kts 279°
2026-05-04 20:10 43.11801 132.97775 14830 ft 383 kts 279°
2026-05-04 20:10 43.12069 132.94152 14409 ft 380 kts 279°
2026-05-04 20:11 43.12333 132.90569 13995 ft 377 kts 279°
2026-05-04 20:11 43.12595 132.87008 13567 ft 375 kts 279°
2026-05-04 20:11 43.12856 132.83475 13113 ft 370 kts 279°
2026-05-04 20:11 43.13105 132.80056 12664 ft 362 kts 279°
2026-05-04 20:12 43.13351 132.76663 12209 ft 354 kts 278°
2026-05-04 20:12 43.13593 132.73350 11773 ft 346 kts 278°
2026-05-04 20:12 43.13828 132.70104 11336 ft 339 kts 278°
2026-05-04 20:12 43.14057 132.66924 10910 ft 332 kts 278°
2026-05-04 20:13 43.14283 132.63798 10485 ft 325 kts 277°
2026-05-04 20:13 43.14498 132.60804 10069 ft 307 kts 277°
2026-05-04 20:13 43.14697 132.57973 9645 ft 291 kts 277°
2026-05-04 20:13 43.14887 132.55286 9196 ft 277 kts 276°
2026-05-04 20:14 43.15070 132.52714 8747 ft 265 kts 276°
2026-05-04 20:14 43.15235 132.50242 8284 ft 257 kts 274°
2026-05-04 20:14 43.15282 132.47872 7809 ft 249 kts 272°
2026-05-04 20:14 43.15670 132.45608 7300 ft 244 kts 295°
2026-05-04 20:15 43.16728 132.43810 6804 ft 245 kts 318°
2026-05-04 20:15 43.18271 132.42796 6315 ft 251 kts 343°
2026-05-04 20:15 43.20011 132.42717 6015 ft 247 kts 357°
2026-05-04 20:15 43.21726 132.42821 5990 ft 248 kts 356°
2026-05-04 20:16 43.23456 132.42904 5991 ft 249 kts 356°
2026-05-04 20:16 43.25188 132.42984 5851 ft 247 kts 356°
2026-05-04 20:16 43.26876 132.43065 5696 ft 240 kts 356°
2026-05-04 20:16 43.28528 132.43145 5536 ft 234 kts 356°
2026-05-04 20:17 43.30123 132.43223 5382 ft 223 kts 356°
2026-05-04 20:17 43.31587 132.43299 5244 ft 206 kts 356°
2026-05-04 20:17 43.33004 132.43369 5092 ft 203 kts 355°
2026-05-04 20:17 43.34412 132.43433 4940 ft 203 kts 355°
2026-05-04 20:18 43.35828 132.43498 4779 ft 204 kts 356°
2026-05-04 20:18 43.37253 132.43566 4629 ft 206 kts 356°
2026-05-04 20:18 43.38691 132.43825 4486 ft 211 kts 11°
2026-05-04 20:18 43.40053 132.44569 4375 ft 212 kts 27°
2026-05-04 20:19 43.41255 132.45747 4229 ft 213 kts 41°
2026-05-04 20:19 43.42505 132.46724 4048 ft 200 kts
2026-05-04 20:19 43.43810 132.46669 3886 ft 180 kts 336°
2026-05-04 20:19 43.44866 132.45941 3740 ft 167 kts 311°
2026-05-04 20:20 43.45598 132.44790 3591 ft 155 kts 290°
2026-05-04 20:20 43.46164 132.43526 3464 ft 155 kts 290°
2026-05-04 20:20 43.46735 132.42266 3398 ft 155 kts 290°
2026-05-04 20:20 43.47303 132.41019 3377 ft 150 kts 290°
2026-05-04 20:21 43.47852 132.39819 3377 ft 147 kts 289°
2026-05-04 20:21 43.48243 132.38585 3375 ft 136 kts 271°
2026-05-04 20:21 43.48094 132.36224 3250 ft 119 kts 234°
2026-05-04 20:22 43.47735 132.35190 3093 ft 119 kts 237°
2026-05-04 20:22 43.47366 132.34172 2921 ft 119 kts 235°
2026-05-04 20:22 43.46985 132.33167 2763 ft 119 kts 235°
2026-05-04 20:22 43.46594 132.32162 2601 ft 119 kts 234°
2026-05-04 20:23 43.46199 132.31160 2440 ft 119 kts 234°
2026-05-04 20:23 43.45799 132.30156 2283 ft 120 kts 234°
2026-05-04 20:23 43.45397 132.29147 2122 ft 121 kts 233°
2026-05-04 20:23 43.44993 132.28138 1955 ft 123 kts 234°
2026-05-04 20:24 43.44575 132.27097 1784 ft 125 kts 234°
2026-05-04 20:24 43.44149 132.26035 1620 ft 128 kts 234°
2026-05-04 20:24 43.43717 132.24960 1434 ft 129 kts 235°
2026-05-04 20:24 43.43278 132.23868 1254 ft 132 kts 236°
2026-05-04 20:25 43.42829 132.22752 1067 ft 135 kts 238°
2026-05-04 20:25 43.42372 132.21614 863 ft 138 kts 239°
2026-05-04 20:25 43.41896 132.20448 625 ft 139 kts 240°
2026-05-04 20:25 43.41429 132.19285 395 ft 138 kts 243°
2026-05-04 20:26 43.40981 132.18149 249 ft 133 kts 242°
2026-05-04 20:26 43.40534 132.17054 107 ft 130 kts 241°
2026-05-04 20:26 43.40117 132.16014 65 ft 109 kts 241°
2026-05-04 20:26 43.39898 132.15466 65 ft 27 kts 240°
2026-05-04 20:27 43.39778 132.15167 67 ft 44 kts 242°
2026-05-04 20:27 43.39603 132.14721 65 ft 61 kts 241°
2026-05-04 20:27 43.39387 132.14216 65 ft 39 kts 239°
2026-05-04 20:27 43.39306 132.14051 61 ft 21 kts 243°
2026-05-04 20:28 43.39215 132.13814 62 ft 34 kts 240°
2026-05-04 20:28 43.39101 132.13502 60 ft 37 kts 239°
2026-05-04 20:28 43.38986 132.13223 64 ft 26 kts 240°
2026-05-04 20:28 43.38880 132.13115 64 ft 15 kts 148°
2026-05-04 20:29 43.38794 132.13188 64 ft 14 kts 146°
2026-05-04 20:29 43.38780 132.13297 63 ft 12 kts 65°
2026-05-04 20:29 43.38823 132.13411 66 ft 15 kts 61°
2026-05-04 20:29 43.38879 132.13554 68 ft 19 kts 62°
2026-05-04 20:30 43.38945 132.13720 67 ft 20 kts 62°
2026-05-04 20:30 43.39017 132.13894 65 ft 22 kts 60°
2026-05-04 20:30 43.39093 132.14082 68 ft 23 kts 61°
2026-05-04 20:30 43.39172 132.14283 64 ft 25 kts 61°
2026-05-04 20:31 43.39258 132.14494 66 ft 26 kts 61°
2026-05-04 20:31 43.39348 132.14717 67 ft 27 kts 60°
2026-05-04 20:31 43.39443 132.14948 60 ft 28 kts 60°
2026-05-04 20:31 43.39540 132.15189 65 ft 29 kts 60°
2026-05-04 20:32 43.39631 132.15414 67 ft 27 kts 61°
2026-05-04 20:32 43.39722 132.15642 63 ft 28 kts 61°
2026-05-04 20:32 43.39816 132.15874 66 ft 24 kts 60°
2026-05-04 20:32 43.39881 132.16034 64 ft 11 kts 61°
2026-05-04 20:33 43.39874 132.16122 65 ft 9 kts 135°
2026-05-04 20:33 43.39824 132.16161 65 ft 8 kts 151°
2026-05-04 20:33 43.39786 132.16191 60 ft 3 kts 151°
2026-05-04 20:33 43.39765 132.16207 62 ft 7 kts 149°
2026-05-04 20:34 43.39747 132.16282 68 ft 11 kts 68°
2026-05-04 20:34 43.39783 132.16387 60 ft 9 kts 71°
2026-05-04 20:34 43.39760 132.16450 65 ft 7 kts 146°
2026-05-04 20:34 43.39723 132.16478 64 ft 2 kts 152°
2026-05-04 20:35 43.39718 132.16482 63 ft 0 kts 152°
2026-05-04 20:35 43.39716 132.16483 64 ft 0 kts 152°